Regional Weather Roundup
Issued by NWS Northern Indiana

Home | Current Version | Previous Version | Text Only | Print | Product List | Glossary On
Versions: 1 2 3 4 5 6 7 8 9 10 11 12 13 14 15 16 17 18 19 20 21 22 23 24 25 26 27 28 29 30 31 32 33 34 35 36 37 38 39 40 41 42 43 44 45 46 47 48 49 50
000
ASUS43 KIWX 270500
RWRIWX

KIWX WEATHER ROUNDUP
NATIONAL WEATHER SERVICE NORTHERN INDIANA
100 AM EDT TUE JUN 27 2017

NOTE: "FAIR" INDICATES FEW OR NO CLOUDS BELOW 12,000 FEET WITH NO
SIGNIFICANT WEATHER AND/OR OBSTRUCTIONS TO VISIBILITY.

* THESE STATIONS ARE NOT UNDER NWS QUALITY CONTROL. THEY ALSO MAY NOT
  REPORT WEATHER SUCH AS PRECIPITATION OR FOG.

INZ001>027-270600-
NORTHERN INDIANA

CITY           SKY/WX    TMP DP  RH WIND       PRES   REMARKS
GARY*          CLEAR     58  43  59 W6        30.10S
MICHIGAN CITY* PTCLDY    59  45  58 NW6       30.09R
KNOX*          CLEAR     52  45  76 SW3       30.08S
SOUTH BEND     CLEAR     51  47  86 SW5       30.08S
GOSHEN         CLEAR     52  44  74 W5        30.07R
MONTICELLO*    PTCLDY    54  51  91 NW3       30.09R
FORT WAYNE     PTCLDY    56  52  86 W7        30.06R
PERU/GRISSOM   CLEAR     56  53  88 N5        30.07S

$$
INZ028>050-270600-
CENTRAL INDIANA

CITY           SKY/WX    TMP DP  RH WIND       PRES   REMARKS
LAFAYETTE      CLEAR     51  51 100 CALM      30.10R
KOKOMO*        PTCLDY    56  52  86 NW5       30.09R
MUNCIE*        CLEAR     56  51  84 W6        30.07S
INDIANAPOLIS   PTCLDY    55  50  83 W7        30.10R

$$
MIZ043>046-050>051-056>058-064>065-071>073-077>080-270600-
SOUTHWEST LOWER MICHIGAN

CITY           SKY/WX    TMP DP  RH WIND       PRES   REMARKS
BATTLE CREEK   CLEAR     51  47  86 W9        30.05R
BENTON HARBOR  PTCLDY    59  48  67 NW7       30.06R
COLDWATER*     CLEAR     52  45  77 W6        30.04S
HILLSDALE*     CLEAR     50  43  76 W6        30.03R
HOLLAND        CLOUDY    59  50  72 NW8       30.05R
GRAND RAPIDS   MOCLDY    53  49  86 W6        30.03R
KALAMAZOO      MOCLDY    52  45  77 W5        30.05S
STURGIS*       CLEAR     52  46  80 CALM      30.05R
THREE RIVERS*  FAIR      51  46  83 CALM      30.06S

$$
OHZ001>008-015>018-024>025-270600-
NORTHWEST OHIO

CITY           SKY/WX    TMP DP  RH WIND       PRES   REMARKS
DEFIANCE       PTCLDY    54  50  86 NW8       30.05R
FINDLAY        MOCLDY    56  51  84 W8        30.03R
TOLEDO EXPRESS PTCLDY    54  53  97 W8        30.02R
TOLEDO METCALF PTCLDY    56  53  90 W9        30.02R
LIMA           PTCLDY    55  51  86 W9        30.05R

$$
AND FOR LAKE MICHIGAN COASTAL AND OPEN LAKE BUOY OBSERVATIONS

STATION/POSITION TEMP    WIND        PRES    VSBY  WAVE
                 AIR SEA DIR/SP/G                  HT/PER
                 (F)     (DEG/KT/KT) (MB)    (MI)  (FT/S)
CALUMET HARBOR    60     290/  3/  5 1018.5R
MICHIGAN CITY     62     300/ 15/ 19   N/A
BURNS HARBOR      63     320/ 14/ 16 1019.0S
SOUTH LAKE BUOY   59 61  350/ 17/ 19 1017.6          3/ 5
4 MI NW BRIDGMAN  62 68  350/ 16/ 19 1018.5R         4/ 4
MICHIGAN CITY     63 65  310/ 14/ 17   N/A           4/ 5

$$
&&



USA.gov is the U.S. government's official web portal to all federal, state and local government web resources and services.